sat.trackr.live / text

‹ back to catalog

STARLINK-37102

NORAD 68183 · 2026-050S

PAYLOAD ACTIVE UNKNOWN

§ Identity

Operator
Country
US
Launch date
2026-03-14
Launch site
AFETR
Launch vehicle
Mass (kg)
RCS (m²)

Purposes: comms

External: N2YO · Heavens-Above · Gunter

§ Orbital elements

Epoch: 2026-09-19T21:05:45.376224Z

Period
93.85 min
Inclination
53.1617°
Eccentricity
0.0001416
Mean motion
15.34401315 rev/d
Perigee alt
461.7 km
Apogee alt
463.7 km
Semi-major
6,840.8 km
B*
3.2432e-4
RAAN
80.5578°
Arg perigee
90.7428°
Mean anomaly
269.3737°
Rev number
3,047

§ Raw data

STARLINK-371021 68183U 26050S   26262.87899741  .00010597  00000+0  32432-3 0  99982 68183  53.1617  80.5578 0001416  90.7428 269.3737 15.34401315 30474

JSON: /api/v1/satellites/68183 · /tle

For live sub-satellite position, see the globe view (requires WebGL).

§ Visibility from observer

Set your observer location to see the next 7 days of passes ≥ 10°. The values pass through the URL so the page stays shareable.

No JS? Fill the form by hand. The geolocation button needs JavaScript.